Regional Weather Roundup
Issued by NWS Albany, NY

Home | Current Version | Previous Version | Text Only | Print | Product List | Glossary On
Versions: 1 2 3 4 5 6 7 8 9 10 11 12 13 14 15 16 17 18 19 20 21 22 23 24 25 26 27
000
ASUS41 KALY 171310
RWRALY

NEW YORK STATE HOURLY WEATHER ROUNDUP
NATIONAL WEATHER SERVICE ALBANY NY
900 AM EDT TUE OCT 17 2017

NOTE: "FAIR" INDICATES FEW OR NO CLOUDS BELOW 12,000 FEET WITH NO
SIGNIFICANT WEATHER AND/OR NO OBSTRUCTIONS TO VISIBILITY.

NYZ032-033-038>043-046>054-057>066-NYZ062>081-082-084-171400-
EAST


CITY           SKY/WX    TMP DP  RH WIND       PRES   REMARKS
ALBANY         MOSUNNY   38  32  79 CALM      30.35R
GLENS FALLS    SUNNY     38  32  79 CALM      30.33R
POUGHKEEPSIE   SUNNY     38  35  89 CALM      30.35R
NEWBURGH       SUNNY     37  36  93 CALM      30.35R
MONTGOMERY     SUNNY     39  34  82 SE3       30.34R
WHITE PLAINS   MOSUNNY   42  33  70 N9        30.34R
ISLIP          MOSUNNY   48  36  63 N13       30.32R
NEW YORK CITY  MOSUNNY   47  33  58 N14       30.35R
CENTRAL PARK   SUNNY     45  35  68 VRB3      30.37R
$$

NYZ005>009-017-018-044>046-055-056-171400-
CENTRAL


CITY           SKY/WX    TMP DP  RH WIND       PRES   REMARKS
FULTON         SUNNY     40  37  89 S7        30.30R
SYRACUSE       MOSUNNY   38  35  89 SE3       30.31R
ROME           SUNNY     35  32  88 E7        30.34S WCI  29
ELMIRA         FOG       33  33 100 SW5       30.34R VSB 1/2 WCI  29
BINGHAMTON     SUNNY     35  31  85 SW5       30.30R WCI  31
MONTICELLO     SUNNY     38  34  85 W3        30.33R
$$

NYZ026>034-041>043-087-171400-
NORTH


CITY           SKY/WX    TMP DP  RH WIND       PRES   REMARKS
WATERTOWN      SUNNY     42  34  73 S8        30.27S
FORT DRUM      NOT AVBL
OGDENSBURG     FAIR      39  37  91 S7        30.25S WCI  34
MASSENA        CLOUDY    38  33  82 S7        30.26S WCI  33
SARANAC LAKE   SUNNY     33  30  88 SW9       30.24R WCI  25
PLATTSBURGH    SUNNY     40  30  67 SW5       30.29R
$$

NYZ001>004-010>016-019>021-085-171400-
WEST


CITY           SKY/WX    TMP DP  RH WIND       PRES   REMARKS
NIAGARA FALLS  SUNNY     51  41  68 S12       30.24S
BUFFALO        MOSUNNY   44  35  70 S9        30.26R
DUNKIRK        PTSUNNY   46  35  65 S16G24    30.28R
JAMESTOWN      SUNNY     36  34  92 S6        30.30R WCI  31
WELLSVILLE     SUNNY     41  31  67 SW7       30.30S
ROCHESTER      MOSUNNY   41  35  79 SW10      30.28S
$$

             KEY
       WCI = WIND CHILL INDEX
       VSB = VISIBILITY
       HX  = HEAT INDEX
$$




USA.gov is the U.S. government's official web portal to all federal, state and local government web resources and services.